SCP
0 0 0 0 0 0 0 0 0 0 0 0 0 0 0 0 0 0 0 0 0 0 0 0 0 0 0 0 0 0 0 0 0 0 0 0 0 0 0 0 0 0 0 0
0 0 0 0 0 0 0 0 0 0 0 0 0 0 0 0 0 0 0 0 0 0 0 0 0 0 0 0 0 0 0 0 0 0 0 0 0 0 0 0 0 0 0 0
0 0 0 0 0 0 0 0 0 0 0 0 0 0 0 0 0 0 0 0 0 0 0 0 0 0 0 0 0 0 0 0 0 0 0 0 0 0 0 0 0 0 0 0
0 0 0 0 0 0 0 0 0 0 0 0 0 0 0 0 0 0 0 0 0 0 0 0 0 0 0 0 0 0 0 0 0 0 0 0 0 0 0 0 0 0 0 0
0 0 0 0 0 0 0 0 0 0 0 0 0 0 0 0 0 0 0 0 0 0 0 0 0 0 0 0 0 0 0 0 0 0 0 0 0 0 0 0 0 0 0 0
0 0 0 0 0 0 0 0 0 0 0 0 0 0 0 0 0 0 0 0 0 0 0 0 0 0 0 0 0 0 0 0 0 0 0 0 0 0 0 0 0 0 0 0
0 0 0 0 0 0 0 0 0 0 0 0 0 0 0 0 0 0 0 0 0 0 0 0 0 0 0 0 0 0 0 0 0 0 0 0 0 0 0 0 0 0 0 0
0 0 0 0 0 0 0 0 0 0 0 0 0 0 0 0 0 0 0 0 0 0 0 0 0 0 0 0 0 0 0 0 0 0 0 0 0 0 0 0 0 0 0 0
0 0 0 0 0 0 0 0 0 0 0 0 0 0 0 0 0 0 0 0 0 0 0 0 0 0 0 0 0 0 0 0 0 0 0 0 0 0 0 0 0 0 0 0
0 0 0 0 0 0 0 0 0 0 0 0 0 0 0 0 0 0 0 0 0 0 0 0 0 0 0 0 0 0 0 0 0 0 0 0 0 0 0 0 0 0 0 0
0 0 0 0 0 0 0 0 0 0 0 0 0 0 0 0 0 0 0 0 0 0 0 0 0 0 0 0 0 0 0 0 0 0 0 0 0 0 0 0 0 0 0 0
0 0 0 0 0 0 0 0 0 0 0 0 0 0 0 0 0 0 0 0 0 0 0 0 0 0 0 0 0 0 0 0 0 0 0 0 0 0 0 0 0 0 0 0
0 0 0 0 0 0 0 0 0 0 0 0 0 0 0 0 0 0 0 0 0 0 0 0 0 0 0 0 0 0 0 0 0 0 0 0 0 0 0 0 0 0 0 0
0 0 0 0 0 0 0 0 0 0 0 0 0 0 0 0 0 0 0 0 0 0 0 0 0 0 0 0 0 0 0 0 0 0 0 0 0 0 0 0 0 0 0 0
0 0 0 0 0 0 0 0 0 0 0 0 0 0 0 0 0 0 0 0 0 0 0 0 0 0 0 0 0 0 0 0 0 0 0 0 0 0 0 0 0 0 0 0
0 0 0 0 0 0 0 0 0 0 0 0 0 0 0 0 0 0 0 0 0 0 0 0 0 0 0 0 0 0 0 0 0 0 0 0 0 0 0 0 0 0 0 0
0 0 0 0 0 0 0 0 0 0 0 0 0 0 0 0 0 0 0 0 0 0 0 0 0 0 0 0 0 0 0 0 0 0 0 0 0 0 0 0 0 0 0 0
0 0 0 0 0 0 0 0 0 0 0 0 0 0 0 0 0 0 0 0 0 0 0 0 0 0 0 0 0 0 0 0 0 0 0 0 0 0 0 0 0 0 0 0
0 0 0 0 0 0 0 0 0 0 0 0 0 0 0 0 0 0 0 0 0 0 0 0 0 0 0 0 0 0 0 0 0 0 0 0 0 0 0 0 0 0 0 0
0 0 0 0 0 0 0 0 0 0 0 0 0 0 0 0 0 0 0 0 0 0 0 0 0 0 0 0 0 0 0 0 0 0 0 0 0 0 0 0 0 0 0 0
0 0 0 0 0 0 0 0 0 0 0 0 0 0 0 0 0 0 0 0 0 0 0 0 0 0 0 0 0 0 0 0 0 0 0 0 0 0 0 0 0 0 0 0
0 0 0 0 0 0 0 0 0 0 0 0 0 0 0 0 0 0 0 0 0 0 0 0 0 0 0 0 0 0 0 0 0 0 0 0 0 0 0 0 0 0 0 0
0 0 0 0 0 0 0 0 0 0 0 0 -0 -0 0 0 0 0 -0 -0 0 0 -0 0 0 0 0 0 0 0 0 0 0 0 0 0 0 0 0 0 0 0 0 0
0 0 0 0 0 0 0 0 0 0 0 0 -0 -0 0 0 0 0 0 0 0 0 0 0 0 0 0 0 0 0 0 0 0 0 0 0 0 0 0 0 0 0 0 0
0 0 0 0 0 0 0 0 0 0 0 0 0 0 0 0 0 0 0 0 0 0 0 0 0 0 0 0 0 0 0 0 0 0 0 0 0 0 0 0 0 0 0 0
0 0 0 0 0 0 0 0 0 0 0 0 0 0 0 0 0 0 0 0 0 0 0 0 0 0 0 0 0 0 0 0 0 0 0 0 0 0 0 0 0 0 0 0
Wind_Speed
1 3 4 7 7 3 3 3 6 5 3 2 7 11 11 5 4 4 4 4 5 5 3 1 1 1 1 1 1 1 2 2 3 2 2 2 1 1 1 1 1 2 2 2
2 4 6 3 3 3 3 4 5 5 2 3 6 11 9 5 5 5 6 6 5 3 2 1 1 1 1 1 1 1 2 2 3 3 2 2 2 1 1 1 1 1 2 2
5 3 2 2 2 3 5 6 6 5 4 2 3 8 5 3 2 2 3 4 3 5 5 3 2 1 1 1 1 2 2 2 2 2 2 2 2 2 1 1 1 0 1 2
4 3 0 1 3 4 7 5 5 4 2 4 1 6 6 3 3 4 4 3 4 4 3 3 3 2 2 2 1 1 2 2 2 3 4 4 3 2 2 1 1 1 1 1
4 1 1 3 4 4 4 3 3 3 3 3 2 4 8 2 4 6 5 4 4 2 3 3 3 2 1 1 1 1 1 2 2 3 4 4 2 2 1 2 2 1 1 1
4 2 2 4 3 3 1 2 1 1 2 5 5 5 8 2 4 5 4 3 2 0 0 0 0 1 1 2 1 1 2 2 2 3 3 3 3 3 2 2 2 1 1 1
5 3 2 0 1 1 2 2 2 2 1 7 3 5 8 4 3 3 3 3 2 1 1 1 1 1 2 2 2 2 2 2 2 3 2 2 3 3 3 2 2 1 1 0
3 6 2 1 2 3 3 4 4 4 5 4 2 7 6 3 3 3 2 2 3 2 2 1 1 1 2 2 2 2 2 2 2 3 2 2 2 2 1 1 1 1 1 1
2 6 3 2 1 3 2 3 3 3 2 4 5 5 5 3 5 5 5 4 3 2 2 1 2 2 2 2 2 2 2 3 3 2 3 3 2 2 2 1 1 0 0 0
1 6 5 3 1 1 2 3 2 2 3 5 5 4 3 4 5 5 5 4 3 3 2 2 2 2 2 2 2 3 3 3 2 2 2 2 2 2 2 2 1 0 1 1
1 3 5 3 1 3 0 1 1 2 3 3 4 5 2 2 2 3 4 3 2 2 1 2 2 3 3 3 3 3 3 4 3 2 2 3 2 2 2 1 1 0 0 1
1 1 4 5 4 2 2 2 2 2 4 3 3 5 3 2 3 4 4 4 3 3 3 3 3 3 3 3 3 3 3 3 3 3 3 3 2 2 2 1 0 1 1 1
1 1 4 5 2 3 1 1 2 2 2 3 4 6 3 5 5 5 5 4 4 4 4 4 4 3 3 3 3 3 3 3 3 3 3 3 3 2 1 1 1 0 1 1
2 2 4 6 5 3 4 4 3 2 3 4 6 7 6 7 6 6 5 4 4 3 4 4 4 3 3 3 2 2 3 3 3 3 3 3 2 1 1 1 1 0 0 0
1 3 5 7 7 5 6 5 3 4 5 6 6 5 6 6 5 5 4 4 4 4 4 4 3 3 3 3 3 2 2 2 2 2 3 3 2 2 2 1 1 1 1 1
1 2 3 6 5 4 5 5 4 5 4 4 5 6 5 6 4 5 4 4 4 4 4 4 4 4 3 3 3 2 2 2 2 2 2 2 2 2 1 1 1 1 1 1
2 1 2 5 5 4 4 4 3 2 1 2 5 6 6 6 6 5 4 4 4 4 4 3 3 2 3 2 2 2 1 1 2 2 2 2 2 2 1 1 1 1 1 1
3 2 2 3 3 4 3 1 1 1 1 2 3 5 5 6 5 3 3 4 5 4 4 3 3 3 3 3 3 2 2 2 2 2 2 2 2 2 2 1 1 1 1 1
3 3 2 2 3 5 2 3 3 2 2 3 4 6 7 6 3 3 4 5 5 4 3 3 3 3 3 3 3 2 3 3 3 3 3 2 2 2 2 2 1 1 1 1
2 2 1 1 2 4 3 6 6 1 2 5 5 6 7 6 4 5 7 7 6 5 4 3 3 3 3 3 3 2 2 3 3 3 3 3 2 2 2 2 2 1 1 1
2 2 0 2 3 5 4 7 4 1 4 6 6 5 5 3 3 6 8 7 5 5 5 4 3 3 3 3 2 2 2 3 3 3 3 3 2 2 2 2 2 1 1 1
1 1 1 1 2 5 5 4 2 2 4 5 5 5 5 5 5 6 6 6 6 5 5 4 3 4 4 3 3 2 3 3 3 3 3 3 3 2 2 1 2 1 1 1
2 2 2 4 4 2 2 2 2 2 4 4 4 5 5 5 6 6 6 5 5 5 4 4 3 4 4 4 3 2 3 3 3 3 3 3 3 2 2 1 1 1 1 0
3 1 1 2 3 3 4 3 4 4 4 4 4 5 5 5 6 6 6 5 5 5 4 4 4 4 4 4 3 3 3 3 2 2 3 3 2 2 2 2 2 1 1 1
2 1 1 3 4 4 3 4 5 5 5 5 5 5 5 5 5 5 5 5 5 4 4 3 3 3 4 4 4 4 3 3 3 3 3 3 2 2 2 3 2 2 2 2
1 2 2 4 4 4 5 4 4 4 5 6 6 6 6 4 5 5 5 4 4 4 4 4 4 4 4 3 4 4 4 3 2 2 3 2 2 2 2 2 3 4 4 5
Wind_Direction
41 105 208 216 208 214 193 222 258 260 255 231 249 266 274 266 244 243 241 237 236 239 250 230 204 173 125 108 117 160 169 174 159 159 157 154 159 149 121 112 104 123 128 127
34 239 237 216 205 221 223 249 262 281 266 240 269 273 273 253 230 227 229 234 233 241 266 247 192 140 157 163 165 170 180 176 174 171 167 160 157 160 159 139 102 110 136 135
212 249 223 177 202 225 240 227 239 262 320 300 308 294 275 270 245 274 264 249 235 219 218 215 200 202 184 179 191 188 190 179 168 154 133 115 96 79 82 94 101 103 128 135
253 276 196 192 224 210 254 235 236 249 275 275 198 285 283 274 298 303 297 280 263 247 221 201 190 193 204 211 197 174 172 163 157 145 142 145 146 153 173 167 154 101 111 118
264 265 199 221 241 207 242 277 249 238 213 263 234 241 279 314 298 298 296 286 283 247 206 195 191 191 197 169 140 136 133 141 146 146 152 150 141 147 137 133 126 113 101 110
271 276 219 231 245 200 232 15 16 72 111 253 222 207 274 256 271 296 304 303 305 287 218 193 119 110 72 68 74 89 121 127 134 140 146 150 148 139 127 125 144 149 144 129
315 303 293 309 349 345 94 89 2 334 267 249 200 210 252 269 286 281 294 309 330 42 78 54 53 66 70 66 66 82 111 114 119 125 129 142 149 147 152 162 157 159 162 143
299 289 278 286 204 215 215 172 183 225 242 278 253 232 257 303 337 349 1 8 29 37 43 51 46 74 80 68 63 75 96 95 101 110 113 109 114 122 125 128 134 163 192 190
281 273 304 294 266 173 198 217 196 175 236 256 257 275 304 348 1 7 9 19 24 28 31 27 38 57 68 69 59 67 87 83 80 86 90 88 91 96 99 98 90 128 104 113
262 279 284 299 337 310 190 179 116 171 227 254 270 266 273 317 332 349 354 353 352 6 18 30 39 45 56 64 62 66 72 78 80 79 78 83 79 84 89 97 97 70 60 77
329 263 299 330 219 234 340 164 191 208 216 220 263 270 265 253 316 327 321 335 347 3 29 33 28 38 51 57 62 63 64 63 59 65 75 77 75 74 78 87 92 123 90 87
311 232 272 265 264 274 205 192 165 205 251 231 248 272 342 358 357 356 345 354 9 31 29 33 35 42 46 51 55 56 57 61 53 54 69 71 71 75 72 62 50 65 63 68
319 312 317 323 332 13 346 303 275 244 221 222 229 263 352 10 13 8 359 359 13 28 28 28 33 32 31 35 46 49 47 46 45 53 61 61 54 56 53 29 11 54 69 60
334 231 223 243 268 289 286 300 295 210 222 242 241 269 319 343 345 345 350 352 11 24 33 35 29 16 16 22 32 38 31 30 32 43 56 57 45 42 38 21 5 5 140 127
32 253 255 266 275 273 274 290 287 241 236 232 254 267 298 314 320 329 341 2 18 18 19 21 19 9 15 17 16 24 27 29 34 44 47 38 27 33 39 35 25 17 20 10
353 271 283 279 270 276 273 293 275 271 277 269 281 284 313 324 341 346 350 5 8 3 358 359 5 8 11 7 358 2 13 20 37 47 37 29 28 26 31 26 36 32 21 7
270 261 283 277 295 303 279 281 252 236 281 265 268 282 326 335 335 335 344 354 343 341 342 342 344 345 344 346 341 336 345 15 40 41 34 28 25 17 5 13 30 24 6 356
217 228 246 284 327 261 255 357 334 213 309 338 318 326 327 313 310 325 350 344 337 337 335 334 333 340 347 353 358 12 25 29 31 29 25 18 15 5 357 7 7 341 338 348
198 194 232 259 268 274 315 350 337 275 297 7 347 339 340 336 336 343 0 350 331 322 319 328 337 347 1 5 8 29 32 30 24 10 358 350 351 346 347 340 325 322 345 349
64 110 160 236 255 264 308 320 312 215 300 1 354 345 345 355 349 319 339 340 339 345 351 359 2 7 17 8 16 41 33 24 3 345 337 337 340 332 323 315 307 315 317 321
8 25 192 232 256 274 315 323 354 91 303 333 335 330 337 341 303 309 328 338 346 353 357 8 13 9 4 7 24 36 24 2 344 344 344 345 343 329 314 318 315 317 328 354
195 193 231 189 244 274 339 15 49 287 313 327 332 331 327 324 326 332 338 346 351 355 357 3 9 3 2 11 26 24 3 347 350 352 350 348 341 334 338 344 330 329 338 347
211 204 205 204 222 279 328 335 316 329 325 330 331 332 332 331 333 335 339 343 346 349 350 354 2 1 359 2 11 5 341 344 353 356 349 345 346 347 344 343 335 329 321 307
305 342 219 272 282 306 321 334 343 343 329 329 335 335 340 334 331 334 336 340 345 347 349 352 359 1 350 351 357 352 340 345 359 356 346 344 351 353 351 344 340 330 307 292
280 308 293 274 294 317 322 339 336 337 344 344 344 344 341 339 335 332 331 333 336 342 348 352 350 342 339 347 353 351 348 352 357 355 349 347 351 355 356 349 340 328 304 288
262 226 236 262 281 281 291 316 333 338 337 333 336 339 341 340 329 329 328 328 332 338 343 346 345 340 339 345 347 348 347 351 353 349 348 343 342 345 351 351 347 354 346 343